Theta_e
329 333 335 337 341 339 338 338 335 336 341 342 342 346 347 346 349 354 348 344 343 349 342 324 327 330 330 328 327 327 327 327 326 326 325 325 325 325 325 325 325 325 325 324 324 324 326 333 337
331 333 334 337 343 341 339 335 336 339 341 342 343 343 347 349 349 348 345 344 344 346 346 342 325 331 332 331 330 329 328 328 327 327 327 327 326 326 326 326 326 326 326 326 326 327 326 326 325
328 332 333 336 340 339 339 336 336 338 340 342 342 345 346 347 347 349 348 347 344 345 350 345 326 325 330 330 330 329 329 328 328 328 328 328 327 327 327 326 326 326 326 326 326 327 327 327 328
334 333 331 337 336 338 337 337 336 336 339 339 341 344 347 349 346 348 346 344 343 344 349 336 331 327 325 325 327 329 328 329 328 328 328 328 327 327 327 326 326 326 326 326 325 326 326 327 327
330 331 334 336 336 337 337 336 336 334 336 338 340 343 345 344 345 346 347 347 345 345 347 336 336 330 328 327 326 326 327 328 329 330 331 331 331 330 329 328 327 326 327 327 326 326 326 326 327
330 332 338 337 337 337 337 335 334 333 336 338 340 342 345 346 347 348 348 349 346 345 347 343 337 335 331 329 329 329 330 331 332 334 335 337 337 337 336 332 329 327 327 328 327 327 327 328 329
331 333 338 337 336 336 336 335 333 331 333 337 338 342 345 346 347 347 346 344 343 344 345 348 345 337 338 339 340 339 337 335 336 336 336 336 336 336 336 335 332 331 328 328 327 328 330 337 340
329 332 334 338 337 335 334 334 333 329 332 336 336 339 344 346 346 345 343 340 340 340 341 340 344 348 349 345 330 329 328 328 328 328 328 328 328 329 340 334 332 333 331 328 327 333 339 341 342
329 331 333 332 335 335 334 334 331 329 332 333 337 337 342 346 345 343 341 341 342 343 344 346 342 342 343 344 342 339 339 340 340 342 344 342 343 344 343 343 341 336 328 327 327 340 342 343 342
329 331 332 331 333 334 334 334 332 331 331 332 336 340 343 346 345 344 342 341 342 342 344 345 345 345 343 341 342 344 344 343 341 342 345 344 345 344 342 340 341 341 337 336 338 336 336 335 333
329 330 329 329 331 333 333 334 333 333 333 332 335 340 343 344 343 340 341 341 340 343 343 343 343 340 339 335 334 331 332 331 333 334 335 339 338 343 340 342 340 341 339 339 339 341 342 343 345
328 328 328 329 328 333 333 333 333 334 333 331 333 337 341 342 340 338 337 338 342 341 340 340 338 333 321 329 328 328 327 327 328 331 332 331 329 331 331 331 333 333 335 335 336 337 337 342 337
328 328 327 327 328 332 331 333 332 334 334 333 334 338 340 341 340 339 339 338 339 336 334 330 330 319 330 330 328 329 328 328 330 328 329 327 328 330 328 328 327 327 328 330 331 332 333 336 339
327 327 327 328 329 331 331 331 332 333 336 334 338 338 340 341 340 340 336 337 336 332 329 331 332 329 328 324 319 328 329 328 327 327 329 328 328 331 327 324 325 325 327 328 328 328 331 331 331
326 327 328 329 330 331 330 334 334 335 338 336 338 338 340 341 341 338 333 333 329 330 331 330 329 330 319 331 330 327 328 326 327 327 326 327 327 325 327 323 321 322 324 321 324 326 327 328 329
327 328 328 330 329 332 331 331 332 334 336 334 339 339 340 342 341 337 333 328 327 329 333 324 328 328 329 329 326 328 328 329 325 326 326 324 325 322 323 322 320 322 322 320 321 321 323 325 326
329 328 329 329 327 329 331 330 336 337 336 334 336 339 341 341 341 337 331 328 329 332 332 332 329 328 330 328 327 325 326 327 327 326 325 324 326 322 322 322 320 321 321 320 320 321 324 323 324
330 329 329 328 329 327 328 328 329 333 332 332 333 338 341 341 340 336 329 329 331 331 332 331 328 329 331 327 328 327 326 325 324 323 322 324 325 325 324 323 320 321 319 319 320 321 319 317 319
328 328 329 329 329 327 328 329 329 328 329 331 332 337 339 340 339 336 329 330 332 332 333 333 331 332 331 331 330 327 326 324 323 322 322 322 323 324 325 324 322 319 317 319 321 321 321 319 317
328 329 330 329 328 329 329 329 329 329 329 330 333 336 339 340 338 333 328 330 331 332 333 334 333 333 334 333 331 330 328 326 325 325 325 324 324 323 323 321 321 320 321 318 319 320 318 318 318
329 329 328 328 328 328 329 329 329 332 331 331 334 336 338 339 337 330 330 330 331 333 333 333 333 335 334 331 328 325 323 321 319 320 322 321 320 319 318 318 317 318 317 317 317 319 320 320 318
330 328 326 327 327 327 327 326 329 329 330 332 333 335 337 336 334 331 331 332 333 333 332 332 331 328 324 323 321 321 319 318 318 317 317 317 317 317 316 314 315 315 316 315 316 316 316 319 319
329 327 326 326 326 327 327 326 330 329 330 331 331 333 335 335 335 334 334 333 332 328 325 323 323 324 324 322 321 320 318 318 317 316 315 315 314 313 315 314 314 315 314 314 316 316 316 316 318
329 328 328 329 327 328 329 325 329 330 328 328 329 330 332 333 333 333 333 330 326 324 323 322 321 320 321 320 319 319 318 317 316 315 315 315 314 314 314 313 313 313 312 311 312 313 314 316 316
329 328 329 330 329 328 328 326 330 328 327 327 328 328 328 329 330 331 331 326 324 322 321 320 319 319 319 318 318 317 316 316 315 314 313 313 313 313 313 312 311 310 310 311 310 309 311 312 314
330 328 330 328 328 327 327 328 330 327 325 325 325 326 328 329 327 327 326 323 322 321 320 319 319 319 318 317 316 316 315 314 313 312 312 311 313 312 312 312 311 311 311 311 309 310 309 310 312
329 330 328 327 329 329 329 328 328 327 327 325 326 326 326 327 326 325 324 322 321 320 319 318 318 317 315 315 316 315 315 314 313 311 310 310 312 313 313 311 310 310 310 310 309 309 309 309 310
328 326 327 332 332 329 328 327 331 328 327 327 326 326 326 326 325 323 322 321 320 319 318 317 316 314 315 316 316 315 313 312 311 312 310 310 311 312 311 311 309 309 309 308 308 308 309 308 310
329 328 329 328 329 330 328 329 328 328 327 327 325 323 325 324 323 322 321 319 318 318 317 316 314 314 315 316 315 314 313 311 311 311 311 311 311 311 310 309 308 308 308 307 308 309 308 307 309
325 326 327 329 330 330 329 329 328 327 326 325 324 324 324 322 322 321 320 318 318 317 316 314 314 315 316 315 314 313 312 311 311 311 309 309 309 309 308 308 308 308 307 307 307 308 308 307 309
Wind_Speed
5 8 7 11 5 5 15 10 16 17 17 13 11 17 18 27 13 7 8 8 8 8 5 9 10 10 10 9 8 7 5 4 3 3 4 5 5 5 6 6 5 5 5 5 4 4 4 4 5
4 11 12 3 4 9 12 18 17 15 9 7 11 9 18 15 19 15 11 10 8 7 5 7 10 10 10 9 8 7 5 3 2 2 3 3 4 4 4 5 5 5 4 5 5 5 5 5 5
6 11 17 7 7 6 15 17 17 14 11 5 17 13 15 14 14 11 11 9 8 8 7 10 8 9 9 8 6 5 4 3 2 1 0 1 2 3 3 3 4 4 4 4 4 4 5 5 6
7 14 13 8 15 16 17 10 9 13 14 9 13 15 11 9 10 11 11 9 8 7 7 6 9 7 6 6 6 5 5 4 4 3 3 4 4 5 5 6 5 5 6 6 6 6 6 6 7
12 18 7 5 16 11 15 11 9 14 14 12 16 20 17 13 13 11 10 10 10 8 3 7 9 8 7 6 5 4 4 5 6 6 6 6 7 8 8 9 9 9 9 9 9 9 10 10 9
22 7 13 3 14 14 10 9 10 14 14 17 20 19 14 11 10 10 9 10 9 9 5 5 6 6 5 5 4 4 5 7 8 9 10 11 11 12 12 12 12 12 12 12 12 11 12 12 12
20 10 19 3 11 14 10 1 14 11 14 11 16 18 13 11 9 10 9 10 9 7 6 5 3 2 1 3 4 5 6 7 10 11 13 14 15 15 15 15 15 14 14 15 14 14 13 12 12
16 8 5 10 3 16 10 8 4 13 14 6 7 14 13 13 11 11 10 10 10 8 6 5 4 3 2 7 3 4 5 7 9 11 12 13 14 13 15 16 15 16 16 16 16 15 14 14 14
11 12 3 3 22 7 8 11 15 11 11 9 7 18 18 16 12 11 10 9 8 7 7 6 5 3 4 1 8 7 8 9 11 13 14 15 12 11 16 16 19 21 19 18 17 15 15 17 19
13 11 10 7 7 12 8 13 12 10 12 13 12 15 15 13 11 9 8 7 7 6 5 5 5 6 5 3 3 3 5 4 6 7 8 9 12 13 14 15 16 17 17 17 14 15 17 19 22
10 10 8 4 7 6 10 9 7 11 9 15 16 15 14 12 9 8 7 6 6 6 7 7 7 6 4 3 3 3 3 5 6 7 8 7 8 11 12 12 16 13 14 13 10 14 17 17 20
9 2 3 5 3 7 8 5 7 6 11 12 15 15 14 12 9 6 5 7 6 7 8 6 5 5 8 6 5 5 6 7 7 9 10 9 8 9 9 10 11 12 11 14 15 15 17 19 24
14 4 4 3 4 7 5 5 6 7 7 3 14 13 13 12 8 6 4 5 6 7 6 6 6 7 8 8 5 5 6 7 8 9 9 10 9 10 10 11 12 12 13 13 15 14 16 13 18
4 3 6 6 6 2 7 8 4 4 6 7 7 12 12 11 9 7 5 6 7 8 8 7 5 7 4 5 7 7 8 8 9 10 11 10 11 11 11 12 13 14 14 14 15 16 16 15 15
3 10 6 7 4 6 8 13 11 8 8 11 12 13 13 11 11 9 8 8 8 9 8 5 5 3 3 4 5 6 8 9 10 12 12 13 12 12 12 12 14 15 12 16 16 16 16 16 15
13 10 13 14 5 7 7 14 20 17 12 13 14 15 14 12 13 11 11 10 9 7 5 5 2 2 5 7 7 9 10 12 12 14 15 15 13 14 15 15 16 16 18 16 17 17 17 17 20
10 12 3 6 3 5 8 14 15 9 10 11 15 17 15 16 14 13 14 11 9 6 4 1 3 5 7 9 11 13 14 15 16 17 17 16 14 17 18 17 17 17 20 20 20 18 15 16 16
2 3 4 7 7 8 13 15 13 16 10 12 17 18 16 18 17 15 16 12 8 5 3 3 5 8 10 12 14 15 17 18 18 20 21 19 19 19 17 17 19 18 21 23 26 21 20 24 22
9 6 8 7 2 6 14 13 11 13 7 13 16 14 16 16 17 17 17 11 7 5 5 7 8 10 12 14 16 19 19 22 23 24 24 24 26 25 15 17 19 21 25 24 23 25 22 22 20
8 10 10 4 4 9 15 16 14 3 14 9 15 14 14 15 16 16 17 13 9 8 9 10 12 13 14 16 18 19 21 23 24 25 24 24 19 17 17 19 21 22 23 26 27 28 27 29 25
10 4 12 13 14 16 18 17 11 5 5 5 9 9 12 15 16 16 16 14 11 11 12 13 13 13 14 16 17 19 20 24 25 23 21 23 22 19 22 22 25 25 24 27 28 26 25 29 23
12 9 11 12 13 11 3 11 10 5 2 3 5 10 13 15 14 16 17 15 12 13 14 12 12 11 11 17 15 17 20 22 22 25 25 26 27 28 29 34 28 27 28 29 29 30 30 30 34
11 10 10 10 11 13 9 8 10 5 3 3 7 9 12 14 14 14 16 6 5 10 10 10 10 10 12 13 14 17 21 22 26 27 30 32 33 31 27 26 26 24 24 26 24 25 28 31 28
9 14 15 13 9 11 9 5 6 9 7 6 5 3 5 10 13 11 5 6 8 9 11 11 13 15 15 17 19 21 24 26 28 29 29 25 24 22 22 21 24 28 31 30 29 26 27 26 28
10 13 8 3 7 5 5 7 11 7 7 6 6 2 2 5 9 6 5 10 9 12 12 15 16 18 19 20 23 24 27 28 29 27 27 25 24 24 23 26 27 26 24 21 20 23 27 31 28
8 9 6 8 9 12 5 3 7 7 5 2 4 6 5 3 8 7 8 9 11 13 15 17 18 20 21 23 25 26 27 29 30 29 28 29 24 22 22 22 23 22 22 22 22 21 23 25 29
10 7 9 8 15 9 2 4 13 6 2 3 4 7 9 6 7 8 9 9 12 15 16 17 19 21 23 25 26 26 23 25 28 30 28 26 22 22 21 23 25 25 23 22 24 23 23 25 26
6 7 5 7 5 8 10 12 10 4 7 6 10 9 6 7 9 9 10 12 13 16 17 19 21 23 24 24 24 24 25 25 27 24 23 23 23 23 26 27 30 28 28 28 25 22 20 21 21
6 7 4 3 7 8 9 6 6 7 8 9 16 16 4 6 8 9 10 15 14 17 19 21 22 23 24 23 24 25 23 27 24 22 21 21 24 26 29 30 35 29 29 25 21 19 19 18 20
7 8 6 6 8 7 7 9 8 4 8 10 12 6 3 4 8 11 14 15 15 18 20 21 22 23 22 23 23 24 25 27 29 24 22 21 22 26 30 33 28 26 22 19 17 16 16 15 13
Wind_Direction
11 329 317 283 2 208 86 94 66 34 70 45 45 57 54 41 50 80 116 107 107 123 148 147 147 146 146 147 147 144 138 124 97 69 55 47 37 30 28 32 38 39 34 29 28 24 16 10 12
344 282 276 232 23 309 69 72 68 61 76 115 64 86 81 63 75 101 102 107 118 132 135 161 156 155 154 153 155 151 144 135 99 60 37 26 20 8 6 5 6 9 6 358 354 351 346 341 338
333 272 277 167 172 98 86 80 68 74 52 24 98 54 54 91 57 97 110 108 113 119 157 218 176 169 164 163 164 157 156 164 159 188 315 330 324 317 317 324 329 332 328 320 315 311 310 311 314
292 259 241 49 69 73 79 72 91 94 101 69 125 98 79 63 93 112 108 105 106 108 173 203 182 169 165 177 185 198 202 215 224 237 264 287 295 292 289 286 286 286 285 287 287 283 282 284 290
279 270 233 106 88 71 67 62 32 65 57 82 95 87 90 89 102 104 106 111 115 108 99 164 175 179 179 192 204 232 268 293 298 297 287 280 275 275 277 278 278 278 279 282 284 286 287 285 281
280 270 33 92 95 88 78 74 82 72 91 108 102 89 90 112 107 110 109 118 116 118 107 130 163 176 186 210 220 228 246 257 272 285 288 288 289 287 284 281 280 277 277 279 282 284 284 286 288
283 291 177 127 124 112 82 38 61 62 79 81 122 105 119 118 114 116 116 110 106 101 105 96 108 123 181 233 261 277 288 295 296 296 299 298 296 294 293 289 286 280 277 278 282 282 280 279 282
286 294 236 109 220 93 109 80 102 87 80 112 126 130 138 131 123 121 118 113 109 101 90 100 133 77 324 11 357 331 330 332 327 319 313 311 305 299 312 297 289 285 283 279 279 277 272 274 276
266 279 171 53 52 125 139 115 72 103 121 107 52 88 122 137 130 123 120 114 105 97 90 92 101 87 97 45 339 21 3 2 351 341 335 328 336 314 312 308 296 295 289 286 283 275 274 277 275
263 277 57 20 121 111 153 133 127 156 132 118 108 113 134 139 137 131 132 111 95 84 83 96 92 89 70 54 29 2 329 338 320 321 313 318 308 302 290 293 292 310 302 293 292 294 289 283 282
259 17 69 99 16 115 140 144 155 179 162 145 141 146 151 152 153 144 136 110 96 100 90 89 93 105 102 55 53 350 359 2 3 360 357 337 322 307 321 306 334 314 310 313 302 297 295 282 275
265 84 316 96 102 250 153 177 168 255 185 139 149 157 162 167 164 143 126 124 123 106 95 93 78 71 104 72 70 50 29 31 2 4 360 353 350 334 330 321 316 312 307 308 304 287 282 283 273
238 135 184 188 227 265 134 207 228 187 102 99 138 160 172 180 172 158 146 128 130 119 116 99 94 93 71 65 52 34 33 348 14 348 341 349 346 325 334 324 327 317 310 305 304 302 299 290 281
91 172 185 208 220 124 261 203 277 164 154 189 160 184 189 188 183 177 168 150 141 130 122 107 77 72 10 24 14 21 340 351 337 334 326 344 332 319 327 322 318 320 312 309 304 297 303 299 293
191 228 195 217 205 221 259 257 199 190 189 199 196 201 202 198 194 198 175 158 150 141 130 92 71 46 34 4 340 333 330 329 323 318 319 320 323 322 319 317 321 317 314 317 308 300 296 292 290
252 253 235 149 192 170 237 284 233 174 192 210 205 210 208 203 205 198 173 160 149 147 137 150 122 353 325 324 329 319 316 310 316 311 308 307 303 313 312 311 309 310 318 311 306 300 299 290 299
187 266 159 162 204 275 214 275 115 175 202 231 224 221 209 214 214 193 183 177 173 172 162 190 279 308 311 310 313 306 308 310 309 307 304 300 298 303 301 301 302 304 301 301 304 303 301 308 306
68 355 167 273 154 221 262 259 252 190 230 240 247 224 220 217 204 197 190 184 192 198 234 275 288 299 302 307 306 306 304 302 303 298 300 293 292 298 294 292 298 296 296 297 292 307 295 305 287
345 312 274 282 3 284 283 290 308 291 260 258 253 227 227 222 207 191 201 202 214 233 269 290 289 295 302 306 301 304 300 299 297 296 292 288 286 275 281 294 293 290 291 292 292 291 296 285 285
293 287 286 327 210 261 279 287 281 278 289 283 262 223 221 216 211 198 211 223 243 264 282 293 292 294 296 299 295 294 296 298 296 294 289 291 286 292 303 296 297 293 286 280 279 281 277 278 275
281 305 340 319 315 282 265 264 222 145 297 272 263 254 223 222 210 205 225 238 261 278 287 292 293 291 294 290 300 300 294 298 298 296 296 297 298 301 303 297 297 292 291 287 281 279 275 277 269
313 13 309 296 296 294 25 297 132 99 174 192 250 246 243 226 214 222 228 242 264 282 289 287 289 299 306 293 304 300 312 306 300 301 296 294 296 293 289 298 290 288 285 282 280 280 273 268 265
358 321 294 293 285 282 210 279 117 161 99 70 213 230 230 245 229 227 242 248 293 289 295 299 300 309 311 316 318 314 307 301 301 297 295 293 293 296 292 289 290 285 276 272 276 275 271 269 266
300 297 286 251 244 234 89 355 75 41 21 8 47 351 242 238 243 236 230 302 287 285 298 301 303 305 308 309 311 311 309 306 303 300 301 303 298 296 296 291 282 285 287 284 274 274 265 266 262
334 347 315 263 216 332 87 303 59 70 44 19 16 24 225 237 249 230 278 277 285 293 295 301 304 305 305 307 307 306 305 304 304 304 302 299 298 296 293 290 294 295 295 295 297 283 276 265 265
309 329 321 323 321 328 206 312 83 80 58 44 356 335 308 252 316 285 275 283 290 299 301 302 306 307 307 308 306 307 304 299 297 293 291 292 293 292 296 296 292 289 290 288 284 288 286 271 260
353 324 1 289 266 259 307 100 133 140 178 203 317 341 312 281 277 270 275 283 296 302 307 307 309 309 308 308 309 308 308 308 307 304 292 292 292 291 295 289 291 292 286 288 288 287 287 279 266
282 350 257 211 291 313 341 308 79 55 22 21 345 308 246 263 275 274 286 292 301 305 309 310 309 310 311 312 311 305 304 308 308 308 297 291 291 292 291 287 294 290 290 287 283 286 288 279 267
305 254 206 312 295 313 300 26 36 29 14 336 318 313 320 265 274 287 298 304 305 306 310 311 313 313 315 316 313 312 307 311 305 300 299 295 290 293 295 297 299 293 288 287 277 277 281 290 264
293 301 328 297 290 270 307 296 58 7 330 341 319 332 339 302 303 304 306 311 309 311 313 315 315 315 317 317 317 316 312 307 302 296 300 303 302 296 298 296 297 298 294 286 267 271 275 283 270